Meath Environmental Platform

Observations for Trim Market St

Time AQI Temp °C Hum % Pres Pa CO μg/m³ H₂S μg/m³ NO μg/m³ NO₂ μg/m³ O₃ μg/m³ SO₂ μg/m³ PM1 μg/m³ PM2.5 μg/m³ PM10 μg/m³
Saturday 22 August 2026
09:16 2 19.7 57 56,474 0.48 0 3 10.1 39.57 0 0.71 2.65 3.31
09:15 2 19.6 57 56,596 0.51 0 3.08 11.34 39.51 0 0 2.14 2.62
09:13 2 19.3 58 56,765 0.54 0 2.03 9.09 40.6 0 1.43 3.62 6.13
09:11 2 19.2 59 56,947 0.71 0 2.34 8.15 41.81 0 0.71 4.6 6.14
09:05 2 18.6 61 57,605 0.63 0 17.82 13.79 32.54 0 0.71 2.99 4.8
09:04 2 18.5 61 57,613 0.78 0 22.2 28.98 30.92 0 0.71 3.48 4.81
09:01 2 18.3 62 57,555 1.37 0 20.97 44.9 32.28 0 0 2.94 4.83
08:56 2 17.8 63 57,427 1.04 0 8.72 21.95 35.01 0 1.43 3.37 6.19
08:55 2 17.6 63 57,399 1.99 0 10.24 22.12 34.62 0 0.71 3.86 6.2
08:54 2 17.5 64 57,374 0.66 0 9.63 15.68 35.42 0 1.43 2.86 4.21
08:53 2 17.3 64 57,353 0.54 0 9.62 30.24 36.05 0 1.43 3.85 6.2
08:52 2 17.2 64 57,334 0.61 0 7.79 61.69 22.77 0 1.43 3.34 4.88
08:51 2 17.1 64 57,319 0.6 0 4.48 26.6 35.59 0 0 1.85 3.56
08:50 2 16.9 64 57,303 0.53 0 4.47 22.77 33.68 0 1.43 4.32 6.21
08:49 2 16.8 64 57,284 0.53 0 4.22 20.5 32.87 0 0.71 4.31 6.21
08:48 2 16.7 64 57,276 0.5 0 4.71 14.65 33.16 0 1.43 2.82 4.23
08:47 2 16.6 65 57,267 0.48 0 4.69 13.94 32.15 0 1.43 3.8 5.55
08:46 2 16.5 65 57,252 0.53 0 4.87 11.1 32.18 0 1.43 3.29 4.9
08:45 2 16.5 65 57,227 0.54 0 4.9 11.68 32.72 0 1.43 4.28 6.22
08:44 2 16.4 65 57,200 0.47 0 4.73 12.35 31.75 0 0.71 3.28 4.91